Weather History for KTVL - May, 2012

Change the Weather History Date:

Wednesday, May 16, 2012

  Actual Average Record
Temperature  
Mean Temperature 57 °F 48 °F  
Max Temperature 75 °F 64 °F 81 °F (2008)
Min Temperature 38 °F 32 °F 17 °F (1977)
Degree Days  
Heating Degree Days 8 17  
Month to date heating degree days 268 302  
Since 1 July heating degree days 6481 7192  
Cooling Degree Days 0 0  
Month to date cooling degree days 0 0  
Year to date cooling degree days 0 0  
Growing Degree Days 5 (Base 50)    
Moisture  
Dew Point 34 °F    
Average Humidity 54    
Maximum Humidity 92    
Minimum Humidity 16    
Precipitation  
Precipitation 0.00 in - 0.85 in (2005)
Month to date precipitation T  
Year to date precipitation 9.76  
Sea Level Pressure  
Sea Level Pressure 30.03 in    
Wind  
Wind Speed 4 mph (SSW)    
Max Wind Speed 18 mph    
Max Gust Speed 24 mph    
Visibility 10 miles    
Events      
T = Trace of Precipitation, MM = Missing Value Source: NWS Daily Summary

Daily Weather History Graph

Daily Weather History Graph

Search for Another Location

Airport or City:

Trip Planner

Search our weather history database for the weather conditions in past years. The results will help you decide how hot, cold, wet, or windy it might be!

Date:

Astronomy

May. 16, 2012 Rise Set
Actual Time 5:46 AM PDT 8:07 PM PDT
Civil Twilight 5:15 AM PDT 8:37 PM PDT
Nautical Twilight 4:38 AM PDT 9:14 PM PDT
Astronomical Twilight 3:57 AM PDT 9:55 PM PDT
Moon 3:16 AM PDT (5/16) 4:29 PM PDT (5/16)
Length of Visible Light 15h 21m
Length of Day
14h 21m
Waning Crescent, 15% of the Moon is Illuminated
May 16
Waning Crescent
May 20
New
May 28
First Quarter
Jun 4
Full
Jun 11
Last Quarter

Hourly Weather History & Observations

Time (PDT) Temp. Windchill Dew Point Humidity Pressure Visibility Wind Dir Wind Speed Gust Speed Precip Events Conditions
12:53 AM 46.0 °F 44.8 °F 37.9 °F 73% 30.06 in 10.0 mi South 3.5 mph - N/A   Clear
1:53 AM 44.1 °F 41.5 °F 37.9 °F 79% 30.05 in 10.0 mi South 4.6 mph - N/A   Clear
2:53 AM 44.1 °F 41.5 °F 37.0 °F 76% 30.03 in 10.0 mi SW 4.6 mph - N/A   Clear
3:53 AM 42.1 °F - 37.0 °F 82% 30.04 in 10.0 mi Calm Calm - N/A   Clear
4:53 AM 39.9 °F - 36.0 °F 86% 30.05 in 10.0 mi Calm Calm - N/A   Clear
5:53 AM 37.9 °F - 35.1 °F 89% 30.07 in 10.0 mi Calm Calm - N/A   Clear
6:53 AM 41.0 °F 37.1 °F 37.0 °F 86% 30.08 in 10.0 mi South 5.8 mph - N/A   Clear
7:53 AM 51.1 °F - 39.9 °F 66% 30.05 in 10.0 mi Calm Calm - N/A   Clear
8:53 AM 61.0 °F - 42.1 °F 50% 30.03 in 10.0 mi NE 4.6 mph - N/A   Clear
9:53 AM 64.9 °F - 44.1 °F 47% 30.04 in 10.0 mi Variable 6.9 mph - N/A   Clear
10:53 AM 70.0 °F - 37.0 °F 30% 30.03 in 10.0 mi NE 6.9 mph - N/A   Clear
11:53 AM 73.0 °F - 24.1 °F 16% 30.02 in 10.0 mi South 8.1 mph - N/A   Clear
12:53 PM 72.0 °F - 26.1 °F 18% 30.02 in 10.0 mi Variable 3.5 mph 20.7 mph N/A   Clear
1:53 PM 72.0 °F - 28.0 °F 20% 30.01 in 10.0 mi SSW 9.2 mph 18.4 mph N/A   Clear
2:53 PM 73.9 °F - 32.0 °F 21% 29.99 in 10.0 mi Variable 3.5 mph - N/A   Clear
3:53 PM 73.0 °F - 32.0 °F 22% 29.98 in 10.0 mi Variable 5.8 mph - N/A   Clear
4:53 PM 70.0 °F - 28.9 °F 22% 29.99 in 10.0 mi West 8.1 mph 18.4 mph N/A   Clear
5:53 PM 69.1 °F - 28.9 °F 22% 30.00 in 10.0 mi SW 8.1 mph 19.6 mph N/A   Clear
6:53 PM 64.4 °F - 30.2 °F 28% 30.13 in 10.0 mi SW 6.9 mph 16.1 mph N/A   Clear
7:53 PM 59.0 °F - 27.0 °F 29% 30.00 in 10.0 mi WSW 3.5 mph - N/A   Clear
8:53 PM 52.0 °F - 35.1 °F 53% 30.00 in 10.0 mi Calm Calm - N/A   Clear
9:53 PM 50.0 °F - 36.0 °F 59% 30.00 in 10.0 mi Calm Calm - N/A   Clear
10:53 PM 53.1 °F - 35.1 °F 50% 29.97 in 10.0 mi SW 5.8 mph - N/A   Clear
11:53 PM 53.6 °F - 28.4 °F 38% 30.12 in 10.0 mi SSW 9.2 mph - N/A   Clear